CDT,Max TemperatureF,Mean TemperatureF,Min TemperatureF,Max Dew PointF,MeanDew PointF,Min DewpointF,Max Humidity, Mean Humidity, Min Humidity, Max Sea Level PressureIn, Mean Sea Level PressureIn, Min Sea Level PressureIn, Max VisibilityMiles, Mean VisibilityMiles, Min VisibilityMiles, Max Wind SpeedMPH, Mean Wind SpeedMPH, Max Gust SpeedMPH,PrecipitationIn, CloudCover, Events, WindDirDegrees
2012-10-1,62,58,53,48,47,45,82,67,55,29.86,29.80,29.75,10,10,10,13,5,21,0.00,0,,359
2012-10-2,66,56,46,54,46,41,88,67,46,29.95,29.86,29.79,10,10,10,13,6,18,0.00,4,,314
2012-10-3,73,64,55,55,52,48,88,70,47,30.11,30.02,29.94,10,10,7,9,4,,0.00,2,,200
2012-10-4,78,66,55,57,54,52,94,68,42,30.22,30.17,30.11,10,10,4,17,4,23,0.00,0,,201
2012-10-5,60,50,39,54,43,36,93,82,71,30.22,30.18,30.11,10,10,5,12,6,22,0.98,6,Thunderstorm,7
2012-10-6,48,40,33,36,33,30,93,73,50,30.28,30.24,30.20,10,10,10,10,6,16,0.01,3,,332
2012-10-7,53,43,33,36,32,27,93,66,40,30.29,30.24,30.19,10,10,6,13,5,16,0.00,2,,335
2012-10-8,59,46,32,37,34,30,100,70,39,30.25,30.18,30.10,10,10,9,14,3,18,0.00,0,,193
2012-10-9,64,52,39,45,41,36,93,68,42,30.12,30.05,29.96,10,10,10,17,6,22,0.00,1,,187
2012-10-10,57,47,35,48,34,27,93,62,33,30.31,30.21,30.02,10,10,6,14,7,21,0.00,1,,329
2012-10-11,60,46,33,48,37,28,94,70,42,30.29,30.23,30.17,10,10,6,15,4,17,0.68,5,Thunderstorm,189
2012-10-12,59,54,50,50,49,46,94,83,67,30.37,30.28,30.22,10,10,5,9,3,,0.00,4,,70
2012-10-13,71,61,51,63,58,48,100,88,69,30.25,30.08,29.85,10,6,0,21,10,30,0.00,6,,185
2012-10-14,71,63,55,63,56,45,94,78,57,30.00,29.84,29.69,10,10,5,23,15,34,0.23,6,,231
2012-10-15,69,56,44,48,44,39,88,71,38,30.05,30.00,29.96,10,10,2,9,3,,0.00,0,,287
2012-10-16,78,62,46,54,47,45,93,64,32,29.98,29.83,29.71,10,10,10,21,6,26,0.00,0,,187
2012-10-17,66,58,51,61,54,48,94,83,63,29.72,29.60,29.43,10,9,2,22,13,30,0.54,4,Thunderstorm,213
2012-10-18,60,53,46,46,34,27,87,49,29,29.72,29.67,29.63,10,10,10,23,8,33,0.12,2,,248
2012-10-19,53,48,44,43,38,30,82,63,44,29.84,29.71,29.60,10,10,10,14,8,28,0.00,8,,271
2012-10-20,66,52,39,45,41,37,93,68,37,29.95,29.89,29.83,10,10,10,8,2,,0.00,2,,182
2012-10-21,75,62,50,63,52,43,83,71,53,30.00,29.96,29.93,10,10,8,16,7,22,0.00,2,,174
2012-10-22,78,69,60,61,56,50,83,64,50,30.03,30.00,29.95,10,10,10,22,12,30,0.00,2,,183
2012-10-23,78,70,62,63,57,50,94,65,54,30.04,29.98,29.93,10,10,9,20,11,24,0.18,2,Thunderstorm,191
2012-10-24,78,69,60,63,59,54,88,72,54,30.05,30.00,29.94,10,10,10,18,10,22,0.00,2,,187
2012-10-25,78,61,44,63,55,39,93,74,54,30.15,29.95,29.85,10,10,7,23,14,32,0.47,4,Thunderstorm,215
2012-10-26,48,42,37,39,31,27,87,64,43,30.32,30.26,30.17,10,10,10,15,10,24,0.01,3,,353
2012-10-27,50,41,32,32,29,27,81,63,43,30.31,30.25,30.20,10,10,10,15,8,22,0.00,0,,352
2012-10-28,50,41,32,30,28,25,81,62,40,30.26,30.23,30.21,10,10,10,13,8,18,0.00,0,,341
2012-10-29,53,43,33,32,26,19,81,54,32,30.32,30.22,30.12,10,10,10,12,6,18,0.00,0,,337
2012-10-30,57,47,37,27,24,21,60,44,29,30.12,29.99,29.91,10,10,10,16,8,25,0.00,0,,319
2012-10-31,57,46,35,28,22,18,70,42,21,30.01,29.97,29.94,10,10,10,14,7,21,0.00,0,,300